CW0104 Weather Reports


Display with metric or nautical units.
time (UTC)temp
F
wind
direction
speed
MPH
gust
MPH
rain 1hr
in
rain 24hr
in
rain mn
in
humidity
%
barometer
mb
20240304150839 49 100 1.0 6.0 0.00 0.01 0.00 79 1030.4
20240304150325 49 84 1.0 8.0 0.00 0.01 0.00 79 1030.5
20240304145812 49 94 3.0 8.0 0.00 0.01 0.00 78 1030.3
20240304145309 49 126 3.0 11.0 0.00 0.01 0.00 79 1030.3
20240304144809 49 79 3.0 11.0 0.00 0.01 0.00 77 1030.3
20240304144308 50 58 1.0 8.0 0.00 0.01 0.00 76 1030.3
20240304143807 50 65 1.0 6.0 0.00 0.01 0.00 76 1030.3
20240304143309 50 37 3.0 14.0 0.00 0.01 0.00 77 1030.3
20240304142806 50 81 4.0 14.0 0.00 0.01 0.00 77 1030.2
20240304142307 50 100 4.0 13.0 0.00 0.01 0.00 77 1030.2
20240304142041 50 96 4.0 15.0 0.00 0.01 0.00 76 1030.2
20240304141254 50 88 3.0 15.0 0.00 0.01 0.00 77 1030.0
20240304141025 50 63 1.0 8.0 0.00 0.01 0.00 77 1030.0
20240304140526 50 31 1.0 8.0 0.00 0.01 0.00 77 1030.0
20240304135752 49 90 1.0 6.0 0.00 0.01 0.00 78 1029.8
20240304135254 49 56 1.0 6.0 0.00 0.01 0.00 77 1029.8
20240304134736 49 68 1.0 9.0 0.00 0.01 0.00 78 1029.8
20240304134234 49 68 1.0 9.0 0.00 0.01 0.00 78 1029.8
20240304133707 49 75 0.0 5.0 0.00 0.01 0.00 79 1029.8
20240304133159 49 86 1.0 5.0 0.00 0.01 0.00 79 1029.8
20240304132921 49 64 1.0 5.0 0.00 0.01 0.00 79 1029.7
20240304132150 49 63 0.0 6.0 0.00 0.01 0.00 79 1029.7
20240304131645 49 64 1.0 8.0 0.00 0.01 0.00 80 1029.6
20240304131112 49 64 1.0 8.0 0.00 0.01 0.00 80 1029.3
20240304131107 49 73 0.0 8.0 0.00 0.01 0.00 82 1029.3
20240304130048 49 37 0.0 3.0 0.00 0.01 0.00 83 1029.3
20240304125529 48 37 0.0 3.0 0.00 0.01 0.00 84 1029.1
20240304125026 48 37 0.0 6.0 0.00 0.01 0.00 85 1029.1
20240304124514 48 53 0.0 6.0 0.00 0.01 0.00 86 1029.1
20240304124016 47 356 0.0 0.0 0.00 0.01 0.00 88 1029.0
20240304123514 47 356 0.0 4.0 0.00 0.01 0.00 89 1029.0
20240304123236 47 356 0.0 5.0 0.00 0.01 0.00 90 1029.0
20240304122455 46 75 1.0 6.0 0.00 0.01 0.00 90 1028.6
20240304121946 46 75 1.0 6.0 0.00 0.01 0.00 91 1028.6
20240304121439 46 90 1.0 8.0 0.00 0.01 0.00 91 1028.6
20240304121200 46 90 0.0 8.0 0.00 0.01 0.00 91 1028.6
20240304120424 46 49 0.0 5.0 0.00 0.01 0.00 91 1028.6
20240304115920 46 52 0.0 4.0 0.00 0.01 0.00 90 1028.3
20240304115412 46 52 0.0 4.0 0.00 0.01 0.00 90 1028.3
20240304114904 45 52 0.0 4.0 0.00 0.01 0.00 90 1028.3
20240304114351 45 52 0.0 4.0 0.00 0.01 0.00 90 1028.4
20240304113842 45 52 0.0 4.0 0.00 0.01 0.00 90 1028.4
20240304113610 45 52 0.0 3.0 0.00 0.01 0.00 90 1028.4
20240304112840 45 44 0.0 3.0 0.00 0.01 0.00 89 1028.3
20240304112341 45 44 0.0 3.0 0.00 0.01 0.00 89 1028.3
20240304111822 45 44 0.0 0.0 0.00 0.01 0.00 89 1028.3
20240304111535 45 44 0.0 0.0 0.00 0.01 0.00 89 1028.1
20240304110758 45 44 0.0 0.0 0.00 0.01 0.00 89 1028.1
20240304110250 44 44 0.0 0.0 0.00 0.01 0.00 89 1028.1
20240304110017 44 44 0.0 0.0 0.00 0.01 0.00 89 1028.1
20240304105245 44 44 0.0 0.0 0.00 0.01 0.00 89 1028.1
20240304104746 44 44 0.0 0.0 0.00 0.01 0.00 89 1028.1
20240304104240 44 44 0.0 0.0 0.00 0.01 0.00 89 1027.7
20240304103738 44 44 0.0 0.0 0.00 0.01 0.00 89 1027.7
20240304103227 44 44 0.0 0.0 0.00 0.01 0.00 89 1027.7
20240304102716 44 44 0.0 0.0 0.00 0.01 0.00 89 1027.5
20240304102710 44 44 0.0 0.0 0.00 0.01 0.00 88 1027.5
20240304101646 44 44 0.0 0.0 0.00 0.01 0.00 88 1027.5
20240304101146 44 44 0.0 0.0 0.00 0.01 0.00 88 1027.4
20240304100734 44 44 0.0 0.0 0.00 0.01 0.00 88 1027.4
20240304095551 44 44 0.0 0.0 0.00 0.01 0.00 88 1027.2
20240304095033 44 44 0.0 0.0 0.00 0.01 0.00 88 1027.2
20240304094450 44 44 0.0 0.0 0.00 0.01 0.00 88 1027.0
20240304094214 44 44 0.0 0.0 0.00 0.01 0.00 88 1027.0
20240304093428 44 44 0.0 0.0 0.00 0.01 0.00 88 1027.0
20240304093155 43 44 0.0 0.0 0.00 0.01 0.00 88 1026.6
20240304092631 43 44 0.0 0.0 0.00 0.01 0.00 88 1026.6
20240304091837 43 44 0.0 0.0 0.00 0.01 0.00 87 1026.6
20240304091339 43 44 0.0 0.0 0.00 0.01 0.00 87 1026.5
20240304090834 43 44 0.0 0.0 0.00 0.01 0.00 87 1026.5
20240304090311 42 44 0.0 0.0 0.00 0.02 0.00 87 1026.5
20240304085810 42 44 0.0 0.0 0.00 0.02 0.00 87 1026.2
20240304085241 42 44 0.0 0.0 0.00 0.02 0.00 87 1026.2
20240304084740 42 44 0.0 0.0 0.00 0.02 0.00 87 1026.2
20240304084217 42 44 0.0 0.0 0.00 0.02 0.00 86 1026.0
20240304083634 42 44 0.0 0.0 0.00 0.02 0.00 86 1026.0
20240304083106 42 44 0.0 0.0 0.00 0.02 0.00 86 1026.0
20240304082606 42 44 0.0 0.0 0.00 0.02 0.00 86 1025.7
20240304082052 42 44 0.0 0.0 0.00 0.03 0.00 86 1025.7
20240304081651 42 44 0.0 0.0 0.00 0.03 0.00 86 1025.7
20240304080541 42 44 0.0 0.0 0.00 0.03 0.00 86 1025.5
20240304080039 42 44 0.0 0.0 0.00 0.03 0.00 86 1025.5
20240304075528 43 44 0.0 0.0 0.00 0.03 0.00 86 1025.4
20240304075028 43 44 0.0 0.0 0.00 0.04 0.00 86 1025.4
20240304074722 43 44 0.0 0.0 0.00 0.04 0.00 86 1025.4
20240304073949 43 44 0.0 0.0 0.00 0.04 0.00 86 1025.3
20240304073433 43 44 0.0 0.0 0.00 0.04 0.00 86 1025.3
20240304072933 43 44 0.0 0.0 0.00 0.04 0.00 86 1025.0
20240304072650 44 44 0.0 0.0 0.00 0.04 0.00 86 1025.0
20240304072140 44 44 0.0 0.0 0.00 0.04 0.00 86 1025.0
20240304071349 44 44 0.0 0.0 0.00 0.05 0.00 86 1025.0
20240304070849 44 44 0.0 0.0 0.00 0.05 0.00 86 1025.0
20240304070818 44 44 0.0 0.0 0.00 0.05 0.00 86 1025.0
20240304070311 44 44 0.0 0.0 0.00 0.05 0.00 86 1024.9
20240304065249 44 44 0.0 0.0 0.00 0.05 0.00 86 1024.9
20240304064747 44 44 0.0 0.0 0.00 0.05 0.00 86 1024.9
20240304064503 45 44 0.0 0.0 0.00 0.05 0.00 86 1024.9
20240304063651 45 44 0.0 0.0 0.00 0.05 0.00 86 1024.9
20240304063119 45 44 0.0 0.0 0.00 0.05 0.00 86 1024.9
20240304062617 45 44 0.0 0.0 0.00 0.06 0.00 86 1024.9
20240304062046 45 44 0.0 0.0 0.00 0.06 0.00 86 1024.9
20240304061511 45 44 0.0 0.0 0.00 0.06 0.00 86 1024.9
20240304060927 45 44 0.0 0.0 0.00 0.08 0.00 86 1024.9
20240304060411 45 44 0.0 0.0 0.00 0.09 0.00 86 1024.9
20240304055908 45 44 0.0 0.0 0.00 0.10 0.00 86 1024.9
20240304055343 45 44 0.0 0.0 0.00 0.10 0.00 86 1024.9
20240304054837 45 44 0.0 0.0 0.00 0.11 0.00 86 1024.9
20240304054320 45 44 0.0 0.0 0.00 0.11 0.00 86 1024.8
20240304053814 45 44 0.0 0.0 0.00 0.13 0.00 85 1024.8
20240304053250 45 44 0.0 0.0 0.00 0.13 0.00 85 1024.8
20240304052744 45 44 0.0 0.0 0.00 0.13 0.00 85 1024.6
20240304052210 45 44 0.0 0.0 0.00 0.14 0.00 85 1024.6
20240304051643 45 44 0.0 1.0 0.00 0.14 0.00 85 1024.6
20240304051507 45 44 0.0 1.0 0.00 0.15 0.00 85 1024.4
20240304050125 45 44 0.0 0.0 0.00 0.15 0.00 83 1024.4
20240304045622 45 44 0.0 0.0 0.00 0.16 0.15 83 1024.4
20240304045115 45 44 0.0 0.0 0.00 0.17 0.15 83 1024.4
20240304044616 45 44 0.0 0.0 0.00 0.18 0.15 83 1024.4
20240304044109 45 44 0.0 0.0 0.00 0.19 0.15 83 1024.3
20240304043601 45 44 0.0 0.0 0.00 0.20 0.15 83 1024.3
20240304043321 45 44 0.0 0.0 0.00 0.23 0.15 83 1024.3
20240304042818 45 44 0.0 0.0 0.00 0.27 0.15 83 1024.2
20240304042311 45 44 0.0 0.0 0.00 0.29 0.15 83 1024.2
20240304041539 45 44 0.0 0.0 0.00 0.31 0.15 83 1024.2
20240304041033 45 44 0.0 0.0 0.00 0.32 0.15 83 1024.3
20240304040521 45 44 0.0 0.0 0.00 0.34 0.15 82 1024.3
20240304040011 46 44 0.0 0.0 0.00 0.37 0.15 82 1024.3
20240304035457 46 44 0.0 0.0 0.00 0.39 0.15 82 1024.2
20240304034955 46 44 0.0 0.0 0.00 0.42 0.15 82 1024.2
20240304034449 46 44 0.0 0.0 0.00 0.44 0.15 82 1023.9
20240304033933 46 44 0.0 0.0 0.00 0.47 0.15 82 1024.0
20240304033658 46 44 0.0 0.0 0.00 0.50 0.15 82 1024.0
20240304032917 47 44 0.0 0.0 0.00 0.53 0.15 82 1023.9
20240304032417 47 44 0.0 0.0 0.00 0.55 0.15 82 1023.9
20240304031855 47 44 0.0 0.0 0.00 0.56 0.15 82 1023.9
20240304031627 47 44 0.0 0.0 0.00 0.57 0.15 82 1023.7
20240304030847 47 44 0.0 0.0 0.00 0.59 0.15 82 1023.7
20240304030347 47 44 0.0 0.0 0.00 0.61 0.15 82 1023.7
20240304025846 47 44 0.0 0.0 0.00 0.63 0.15 81 1023.8
20240304025345 47 44 0.0 0.0 0.00 0.64 0.15 81 1023.8
20240304025110 48 44 0.0 0.0 0.00 0.66 0.15 81 1023.8
20240304024612 48 44 0.0 0.0 0.00 0.67 0.15 81 1023.6
20240304023832 48 44 0.0 0.0 0.00 0.68 0.15 81 1023.6
20240304023603 48 44 0.0 0.0 0.00 0.70 0.15 80 1023.6
20240304022829 48 44 0.0 0.0 0.00 0.71 0.15 80 1023.5
20240304022314 48 44 0.0 0.0 0.00 0.73 0.15 80 1023.5
20240304021807 48 44 0.0 0.0 0.00 0.74 0.15 80 1023.5
20240304021247 48 44 0.0 0.0 0.00 0.75 0.15 79 1023.4
20240304020745 48 44 0.0 0.0 0.00 0.76 0.15 79 1023.4
20240304020247 48 44 0.0 0.0 0.00 0.77 0.15 79 1023.4
20240304015749 48 44 0.0 0.0 0.00 0.78 0.15 79 1023.1
20240304015247 48 44 0.0 0.0 0.00 0.79 0.15 79 1023.1
20240304014741 48 44 0.0 0.0 0.00 0.80 0.15 79 1023.1
20240304014225 48 44 0.0 0.0 0.00 0.82 0.15 79 1022.9
20240304013643 48 44 0.0 0.0 0.00 0.83 0.15 79 1022.9
20240304013107 48 44 0.0 0.0 0.00 0.83 0.15 79 1022.9
20240304012525 48 44 0.0 0.0 0.00 0.84 0.15 79 1022.9
20240304011943 49 44 0.0 0.0 0.00 0.84 0.15 79 1022.9
20240304011639 49 44 0.0 0.0 0.00 0.84 0.15 79 1022.9
20240304010905 49 44 0.0 0.0 0.00 0.85 0.15 79 1022.9
20240304010355 49 44 0.0 0.0 0.00 0.85 0.15 78 1022.9
20240304010121 49 44 0.0 0.0 0.00 0.86 0.15 78 1022.6
20240304005617 49 44 0.0 0.0 0.00 0.86 0.15 77 1022.6
20240304004837 49 44 0.0 0.0 0.00 0.87 0.15 77 1022.6
20240304004255 50 44 0.0 0.0 0.00 0.87 0.15 76 1022.4
20240304003732 50 44 0.0 0.0 0.00 0.88 0.15 76 1022.4
20240304003505 50 44 0.0 0.0 0.00 0.89 0.15 75 1022.4
20240304002725 50 44 0.0 0.0 0.00 0.90 0.15 75 1022.4
20240304002206 51 44 0.0 0.0 0.00 0.91 0.15 75 1022.4
20240304001702 51 44 0.0 0.0 0.00 0.92 0.15 74 1022.4
20240304001141 51 44 0.0 0.0 0.00 0.92 0.15 74 1022.4
20240304000623 51 44 0.0 0.0 0.00 0.93 0.15 74 1022.4
20240304000116 51 44 0.0 0.0 0.00 0.94 0.15 73 1022.4
20240303235604 52 44 0.0 0.0 0.00 0.95 0.15 73 1021.9
20240303235327 52 44 0.0 0.0 0.00 0.97 0.15 72 1021.9
20240303234542 52 44 0.0 0.0 0.00 0.99 0.15 72 1021.9
20240303234029 53 44 0.0 0.0 0.00 1.00 0.15 72 1021.8
20240303233755 53 44 0.0 0.0 0.00 1.01 0.15 71 1021.8
20240303233005 53 44 0.0 0.0 0.00 1.02 0.15 71 1021.9
20240303232454 54 44 0.0 0.0 0.00 1.03 0.15 70 1021.6
20240303231957 54 44 0.0 0.0 0.00 1.04 0.15 70 1021.6
20240303231952 54 44 0.0 0.0 0.00 1.03 0.15 70 1021.6
20240303230942 55 44 0.0 0.0 0.00 1.04 0.15 70 1021.4
20240303230440 55 44 0.0 0.0 0.01 1.04 0.15 69 1021.4
20240303225922 55 44 0.0 0.0 0.01 1.05 0.15 69 1021.1
20240303225420 55 44 0.0 0.0 0.01 1.05 0.15 69 1021.1
20240303224914 56 44 0.0 0.0 0.01 1.05 0.15 69 1021.1
20240303224643 56 44 0.0 0.0 0.01 1.06 0.15 70 1020.9
20240303223909 56 44 0.0 4.0 0.01 1.07 0.15 70 1020.9
20240303223347 56 44 0.0 4.0 0.01 1.07 0.15 70 1020.9
20240303222841 56 44 0.0 3.0 0.01 1.08 0.15 71 1020.5
20240303222603 56 44 0.0 1.0 0.01 1.08 0.15 71 1020.5
20240303221829 56 44 0.0 1.0 0.01 1.09 0.15 71 1020.5
20240303221318 57 44 0.0 0.0 0.01 1.10 0.15 71 1020.2
20240303220816 57 44 0.0 0.0 0.01 1.10 0.15 70 1020.2
20240303220312 57 44 0.0 4.0 0.00 1.09 0.14 69 1020.2
20240303215805 57 44 0.0 4.0 0.00 1.10 0.14 69 1019.9
20240303215255 57 46 0.0 5.0 0.00 1.10 0.14 69 1019.9
20240303214748 58 45 0.0 5.0 0.00 1.11 0.14 68 1019.9
20240303214250 58 46 0.0 5.0 0.00 1.11 0.14 68 1019.7
20240303213740 58 46 1.0 9.0 0.00 1.11 0.14 67 1019.7
20240303213240 58 27 0.0 9.0 0.00 1.11 0.14 67 1019.7
20240303212738 59 354 0.0 6.0 0.00 1.11 0.14 67 1019.4
20240303212237 59 47 1.0 11.0 0.00 1.12 0.14 65 1019.4
20240303211718 59 352 1.0 11.0 0.00 1.12 0.14 65 1019.4
20240303211218 60 343 0.0 6.0 0.00 1.12 0.14 65 1019.4
20240303210716 60 3 0.0 9.0 0.00 1.12 0.14 65 1019.4
20240303210219 59 342 0.0 9.0 0.00 1.12 0.14 65 1019.4
20240303205943 60 327 0.0 0.0 0.00 1.12 0.14 65 1019.4
20240303205156 59 320 0.0 0.0 0.00 1.13 0.14 66 1019.4
20240303204647 58 330 0.0 5.0 0.00 1.13 0.14 67 1019.4
20240303204135 58 330 0.0 5.0 0.00 1.13 0.14 68 1019.4
20240303203627 58 343 1.0 11.0 0.00 1.13 0.14 67 1019.4
20240303203122 58 342 3.0 13.0 0.00 1.13 0.14 67 1019.4
20240303202617 58 13 3.0 14.0 0.00 1.13 0.14 67 1019.3
20240303202105 58 359 3.0 14.0 0.00 1.13 0.14 67 1019.3
20240303201606 58 312 4.0 14.0 0.00 1.13 0.14 67 1019.3
20240303201101 58 332 3.0 14.0 0.00 1.14 0.14 67 1019.3
20240303200553 58 13 1.0 14.0 0.00 1.14 0.14 66 1019.3
20240303200048 58 13 1.0 11.0 0.00 1.14 0.14 68 1019.3
20240303195811 58 54 1.0 11.0 0.00 1.14 0.14 67 1019.1
20240303195035 58 37 1.0 18.0 0.00 1.14 0.14 67 1019.1
20240303194747 58 310 3.0 15.0 0.00 1.14 0.14 67 1019.1
20240303194240 58 8 3.0 19.0 0.00 1.14 0.14 68 1018.9
20240303193507 58 352 3.0 19.0 0.00 1.14 0.14 68 1018.9
20240303193008 58 3 3.0 15.0 0.00 1.14 0.14 67 1018.9
20240303192504 58 13 3.0 14.0 0.00 1.14 0.14 67 1018.9
20240303192006 58 3 3.0 14.0 0.00 1.14 0.14 67 1018.9
20240303191505 58 309 1.0 13.0 0.00 1.15 0.14 68 1018.9
20240303191231 57 322 1.0 14.0 0.00 1.15 0.14 69 1018.9
20240303190459 57 329 3.0 18.0 0.00 1.15 0.14 68 1018.9
20240303185959 57 30 3.0 18.0 0.00 1.15 0.14 68 1018.9
20240303185502 57 8 3.0 13.0 0.00 1.15 0.14 68 1018.9
20240303184953 57 333 4.0 9.0 0.00 1.15 0.14 68 1018.9
20240303184451 57 27 4.0 19.0 0.00 1.15 0.14 69 1018.9
20240303183945 57 315 3.0 19.0 0.00 1.15 0.14 69 1018.9
20240303183436 57 355 3.0 14.0 0.00 1.16 0.14 71 1018.9
20240303182934 57 315 4.0 16.0 0.00 1.16 0.14 71 1018.8
20240303182428 56 296 5.0 18.0 0.00 1.16 0.14 71 1018.8
20240303182153 56 352 4.0 19.0 0.00 1.16 0.14 70 1018.8
20240303181415 56 8 3.0 19.0 0.00 1.16 0.14 71 1018.8
20240303180911 56 333 1.0 14.0 0.00 1.16 0.14 72 1018.8
20240303180905 56 334 1.0 9.0 0.00 1.16 0.14 73 1018.8
20240303175853 56 340 3.0 15.0 0.00 1.16 0.14 73 1018.8
20240303175352 56 325 3.0 15.0 0.00 1.16 0.14 73 1018.8
20240303174845 56 307 3.0 13.0 0.00 1.16 0.14 74 1018.8
20240303174611 55 13 1.0 9.0 0.00 1.16 0.14 74 1018.8
20240303173834 55 337 3.0 14.0 0.00 1.16 0.14 75 1018.8
20240303173328 55 331 4.0 16.0 0.00 1.16 0.14 76 1018.8
20240303172821 54 337 3.0 16.0 0.00 1.16 0.14 77 1018.8
20240303172316 54 17 3.0 11.0 0.00 1.16 0.14 78 1018.8
20240303171809 53 39 4.0 15.0 0.00 1.16 0.14 78 1018.8
20240303171304 53 327 5.0 19.0 0.00 1.16 0.14 79 1018.9
20240303170752 53 315 4.0 19.0 0.00 1.16 0.14 79 1018.9
20240303170251 52 75 3.0 15.0 0.00 1.16 0.14 82 1018.9
20240303165741 51 44 4.0 16.0 0.00 1.16 0.14 83 1019.1
20240303165512 51 25 4.0 16.0 0.00 1.16 0.14 84 1019.1
20240303164734 51 337 4.0 15.0 0.00 1.16 0.14 86 1019.1
20240303164227 50 313 3.0 15.0 0.00 1.16 0.14 87 1019.2
20240303163721 50 318 4.0 15.0 0.00 1.16 0.14 90 1019.2
20240303163210 49 353 4.0 14.0 0.00 1.16 0.14 90 1019.2
20240303162709 49 342 3.0 13.0 0.00 1.16 0.14 91 1019.2
20240303162203 49 17 4.0 13.0 0.00 1.16 0.14 92 1019.2
20240303161657 49 318 4.0 13.0 0.00 1.16 0.14 93 1019.2
20240303161151 49 27 1.0 11.0 0.00 1.16 0.14 94 1019.2
20240303160913 48 23 3.0 15.0 0.00 1.16 0.14 95 1019.2
20240303160140 48 324 5.0 15.0 0.00 1.16 0.14 95 1019.2
20240303155635 47 337 4.0 13.0 0.00 1.16 0.14 96 1018.9
20240303155128 48 348 1.0 10.0 0.00 1.16 0.14 96 1018.9
20240303154622 47 352 4.0 16.0 0.00 1.16 0.14 97 1018.9
20240303154115 47 337 5.0 16.0 0.00 1.16 0.14 97 1018.9
20240303153608 47 3 1.0 14.0 0.00 1.16 0.14 97 1018.9
20240303153103 47 331 4.0 14.0 0.00 1.16 0.14 98 1018.9
20240303152552 47 340 4.0 14.0 0.00 1.16 0.14 98 1019.2
20240303152040 46 339 1.0 13.0 0.00 1.16 0.14 98 1019.2
20240303151538 46 306 1.0 11.0 0.00 1.16 0.14 98 1019.2